Weather History for Thermopolis, WY

Change the Weather History Date:

Sunday, May 11, 2014

  Actual Average (KWRL) Record (KWRL)
Temperature  
Mean Temperature 27 °F 54 °F  
Max Temperature 28 °F 68 °F 88 °F (1960)
Min Temperature 26 °F 39 °F 28 °F (1983)
Degree Days  
Heating Degree Days 38 11  
Month to date heating degree days 143  
Since 1 July heating degree days 7610  
Cooling Degree Days 0 0  
Month to date cooling degree days 0  
Year to date cooling degree days 1  
Moisture  
Dew Point 27 °F    
Average Humidity 94    
Maximum Humidity 100    
Minimum Humidity 93    
Precipitation  
Precipitation 0.00 in 0.04 in 0.73 in (2005)
Month to date precipitation 0.47  
Year to date precipitation 2.21  
Sea Level Pressure  
Sea Level Pressure 30.16 in    
Wind  
Wind Speed 46 mph (NW)    
Max Wind Speed 58 mph    
Max Gust Speed 66 mph    
T = Trace of Precipitation, MM = Missing Value Source: NWS Daily Summary

Daily Weather History Graph

Daily Weather History Graph

Search for Another Location

Airport:

Trip Planner

Search our weather history database for the weather conditions in past years. The results will help you decide how hot, cold, wet, or windy it might be!

Date:

Astronomy

May. 11, 2014 Rise Set
Actual Time 5:52 AM MDT 8:26 PM MDT
Civil Twilight 5:20 AM MDT 8:59 PM MDT
Nautical Twilight 4:39 AM MDT 9:39 PM MDT
Astronomical Twilight 3:53 AM MDT 10:26 PM MDT
Moon 5:20 PM MDT (5/11) 4:05 AM MDT (5/11)
Length of Visible Light 15h 38m
Length of Day
14h 33m
Waxing Gibbous, 89% of the Moon is Illuminated
May 11
Waxing Gibbous
May 14
Full
May 21
Last Quarter
May 28
New
Jun 5
First Quarter

Hourly Weather History & Observations

Time (MDT) Temp. Windchill Dew Point Humidity Pressure Visibility Wind Dir Wind Speed Gust Speed Precip Events Conditions
1:15 PM 26.6 °F 6.0 °F 26.6 °F 100% 30.04 in - WNW 55.2 mph 65.6 mph N/A   Unknown
1:35 PM 28.4 °F 8.7 °F 26.6 °F 93% 30.05 in - WNW 54.1 mph 62.1 mph N/A   Overcast
1:55 PM 26.6 °F 5.7 °F 26.6 °F 100% 30.04 in - WNW 57.5 mph 63.3 mph N/A   Overcast
2:15 PM 28.4 °F 8.7 °F 26.6 °F 93% 30.06 in - WNW 54.1 mph 61.0 mph N/A   Overcast
2:35 PM 28.4 °F 8.6 °F 26.6 °F 93% 30.07 in - NW 55.2 mph 62.1 mph N/A   Overcast
2:55 PM 28.4 °F 9.0 °F 26.6 °F 93% 30.07 in - NW 51.8 mph 59.8 mph N/A   Overcast
3:15 PM 28.4 °F 9.7 °F 26.6 °F 93% 30.10 in - NW 47.2 mph 56.4 mph N/A   Overcast
3:35 PM 28.4 °F 9.5 °F 26.6 °F 93% 30.10 in - NW 48.3 mph 55.2 mph N/A   Overcast
3:55 PM 28.4 °F 10.0 °F 26.6 °F 93% 30.10 in - NW 44.9 mph 54.1 mph N/A   Overcast
4:15 PM 28.4 °F 9.8 °F 26.6 °F 93% 30.10 in - WNW 46.0 mph 51.8 mph N/A   Unknown
4:35 PM 28.4 °F 9.2 °F 28.4 °F 100% 30.10 in - NW 50.6 mph 54.1 mph N/A   Unknown
4:55 PM 28.4 °F 9.5 °F 28.4 °F 100% 30.11 in - NW 48.3 mph 51.8 mph N/A   Overcast
5:15 PM 28.4 °F 9.7 °F 26.6 °F 93% 30.12 in - NW 47.2 mph 51.8 mph N/A   Unknown
5:35 PM 28.4 °F 10.2 °F 26.6 °F 93% 30.12 in - NW 43.7 mph 51.8 mph N/A   Unknown
5:55 PM 28.4 °F 10.0 °F 26.6 °F 93% 30.13 in - NW 44.9 mph 51.8 mph N/A   Overcast
6:15 PM 28.4 °F 10.8 °F 26.6 °F 93% 30.15 in - NW 40.3 mph 46.0 mph N/A   Overcast
6:35 PM 28.4 °F 11.4 °F 26.6 °F 93% 30.16 in - NW 36.8 mph - N/A   Overcast
6:55 PM 28.4 °F 11.0 °F 26.6 °F 93% 30.17 in - NW 39.1 mph - N/A   Unknown
7:15 PM 28.4 °F 10.6 °F 26.6 °F 93% 30.17 in - NW 41.4 mph 46.0 mph N/A   Unknown
7:35 PM 28.4 °F 11.4 °F 26.6 °F 93% 30.20 in - NW 36.8 mph 43.7 mph N/A   Overcast
7:55 PM 28.4 °F 11.8 °F 26.6 °F 93% 30.20 in - NW 34.5 mph - N/A   Overcast
8:15 PM 28.4 °F 12.3 °F 26.6 °F 93% 30.22 in - NW 32.2 mph - N/A   Unknown
8:35 PM 28.4 °F 12.3 °F 26.6 °F 93% 30.22 in - NW 32.2 mph - N/A   Overcast
8:55 PM 28.4 °F 12.5 °F 26.6 °F 93% 30.23 in - NW 31.1 mph - N/A   Unknown
9:15 PM 28.4 °F 13.3 °F 26.6 °F 93% 30.24 in - NW 27.6 mph - N/A   Overcast
9:35 PM 28.4 °F 13.0 °F 26.6 °F 93% 30.25 in - NW 28.8 mph - N/A   Overcast
9:55 PM 28.4 °F 13.8 °F 26.6 °F 93% 30.25 in - NW 25.3 mph - N/A   Overcast
10:15 PM 28.4 °F 13.5 °F 26.6 °F 93% 30.25 in - NW 26.5 mph - N/A   Unknown
10:35 PM 28.4 °F 12.0 °F 26.6 °F 93% 30.24 in - WNW 33.4 mph - N/A   Unknown
10:55 PM 28.4 °F 12.7 °F 26.6 °F 93% 30.25 in - NW 29.9 mph - N/A   Unknown
11:15 PM 28.4 °F 12.5 °F 26.6 °F 93% 30.25 in - WNW 31.1 mph - N/A   Unknown
11:35 PM 28.4 °F 11.6 °F 26.6 °F 93% 30.24 in - WNW 35.7 mph - N/A   Unknown
11:55 PM 28.4 °F 11.6 °F 26.6 °F 93% 30.23 in - WNW 35.7 mph - N/A   Unknown